Terrell, TX

12:17 AM CDT on July 27, 2017 (GMT -0500)
Terrell Municipal

Weather History for KTRL - October, 2013

Change the Weather History Date:

Monday, October 14, 2013

  Actual Average (KGVT) Record (KGVT)
Temperature  
Mean Temperature 71 °F -  
Max Temperature 73 °F 75 °F 96 °F (2015)
Min Temperature 69 °F 56 °F 46 °F (2010)
Cooling Degree Days 6    
Growing Degree Days 21 (Base 50)    
Moisture  
Dew Point 72 °F    
Average Humidity 99    
Maximum Humidity 100    
Minimum Humidity 94    
Precipitation  
Precipitation 0.28 in - - ()
Sea Level Pressure  
Sea Level Pressure 30.02 in    
Wind  
Wind Speed 7 mph (SE)    
Max Wind Speed 10 mph    
Max Gust Speed -    
Visibility 6 miles    
Events Rain    
Averages and records for this station are not official NWS values.
T = Trace of Precipitation, MM = Missing Value Source: NWS Daily Summary

Daily Weather History Graph

Daily Weather History Graph

Search for Another Location

Airport or City:

Trip Planner

Search our weather history database for the weather conditions in past years. The results will help you decide how hot, cold, wet, or windy it might be!

Date:

Astronomy

Oct. 14, 2013 Rise Set
Actual Time 7:28 AM CDT 6:52 PM CDT
Civil Twilight 7:03 AM CDT 7:17 PM CDT
Nautical Twilight 6:35 AM CDT 7:46 PM CDT
Astronomical Twilight 6:06 AM CDT 8:14 PM CDT
Moon 4:11 PM CDT (10/14) 3:00 AM CDT (10/14)
Length of Visible Light 12h 13m
Length of Day
11h 24m
Waxing Gibbous, 79% of the Moon is Illuminated
Oct 14
Waxing Gibbous
Oct 18
Full
Oct 26
Last Quarter
Nov 3
New
Nov 9
First Quarter

Hourly Weather History & Observations

Time (CDT) Temp. Dew Point Humidity Pressure Visibility Wind Dir Wind Speed Gust Speed Precip Events Conditions
12:53 AM 70.0 °F 69.1 °F 97% 30.12 in 10.0 mi East 6.9 mph - 0.00 in Rain Light Rain
1:53 AM 70.0 °F 69.1 °F 97% 30.14 in 9.0 mi East 5.8 mph - 0.01 in Rain Light Rain
2:11 AM 69.8 °F 69.8 °F 100% 30.15 in 6.0 mi East 5.8 mph - 0.01 in Rain Rain
2:53 AM 69.1 °F 69.1 °F 100% 30.12 in 6.0 mi East 5.8 mph - 0.04 in Rain Light Rain
3:30 AM 69.8 °F 69.8 °F 100% 30.12 in 6.0 mi ENE 5.8 mph - 0.00 in Rain Light Rain
3:53 AM 69.1 °F 69.1 °F 100% 30.10 in 6.0 mi East 6.9 mph - 0.01 in Rain Light Rain
4:53 AM 70.0 °F 70.0 °F 100% 30.09 in 5.0 mi ESE 5.8 mph - 0.00 in Rain Light Rain
5:53 AM 70.0 °F 70.0 °F 100% 30.08 in 5.0 mi ESE 9.2 mph - 0.03 in Rain Light Rain
6:53 AM 70.0 °F 70.0 °F 100% 30.08 in 5.0 mi ESE 4.6 mph - 0.00 in Rain Light Rain
7:53 AM 70.0 °F 70.0 °F 100% 30.08 in 4.0 mi ESE 6.9 mph - 0.00 in Rain Light Rain
8:53 AM 70.0 °F 70.0 °F 100% 30.09 in 3.0 mi East 6.9 mph - 0.01 in Rain Light Rain
9:53 AM 70.0 °F 70.0 °F 100% 30.10 in 3.0 mi ESE 8.1 mph - 0.02 in Rain Rain
10:01 AM 69.8 °F 69.8 °F 100% 30.11 in 2.5 mi ESE 6.9 mph - 0.00 in Rain Light Rain
10:21 AM 69.8 °F 69.8 °F 100% 30.10 in 3.0 mi East 9.2 mph - 0.01 in Rain Light Rain
10:53 AM 71.1 °F 71.1 °F 100% 30.08 in 3.0 mi SE 8.1 mph - 0.03 in Rain Light Rain
11:53 AM 71.1 °F 71.1 °F 100% 30.06 in 4.0 mi SE 10.4 mph - 0.01 in Rain Light Rain
12:53 PM 72.0 °F 72.0 °F 100% 30.03 in 5.0 mi SE 8.1 mph - 0.01 in Rain Light Rain
1:53 PM 73.0 °F 73.0 °F 100% 30.00 in 4.0 mi SE 8.1 mph - 0.01 in Rain Light Rain
2:10 PM 71.6 °F 71.6 °F 100% 30.00 in 2.0 mi SE 9.2 mph - 0.02 in Rain Rain
2:18 PM 73.4 °F 73.4 °F 100% 29.99 in 3.0 mi ESE 8.1 mph - 0.02 in Rain Light Rain
2:53 PM 73.0 °F 73.0 °F 100% 29.96 in 3.0 mi SE 9.2 mph - 0.04 in Rain Rain
3:18 PM 73.4 °F 71.6 °F 94% 29.98 in 5.0 mi SE 5.8 mph - 0.02 in Rain Light Rain
3:26 PM 73.4 °F 73.4 °F 100% 29.98 in 5.0 mi SE 5.8 mph - 0.02 in Rain Light Rain
3:28 PM 73.4 °F 73.4 °F 100% 29.98 in 5.0 mi SE 6.9 mph - 0.02 in Rain Light Rain
3:37 PM 73.4 °F 73.4 °F 100% 29.97 in 6.0 mi SE 6.9 mph - 0.02 in   Overcast
3:53 PM 73.9 °F 73.9 °F 100% 29.96 in 7.0 mi SSE 5.8 mph - 0.02 in   Overcast
4:01 PM 73.4 °F 73.4 °F 100% 29.97 in 5.0 mi SSE 4.6 mph - 0.00 in Rain Light Rain
4:08 PM 73.4 °F 73.4 °F 100% 29.97 in 3.0 mi SSE 5.8 mph - 0.01 in Rain Light Rain
4:15 PM 73.4 °F 73.4 °F 100% 29.97 in 2.0 mi SSE 4.6 mph - 0.03 in Rain Heavy Rain
4:26 PM 73.4 °F 73.4 °F 100% 29.97 in 7.0 mi SSE 6.9 mph - 0.03 in   Overcast
4:43 PM 73.4 °F 73.4 °F 100% 29.97 in 6.0 mi SSE 8.1 mph - 0.03 in Rain Light Rain
4:53 PM 73.9 °F 73.9 °F 100% 29.95 in 4.0 mi SSE 10.4 mph - 0.04 in Rain Light Rain
5:53 PM 73.9 °F 73.0 °F 97% 29.94 in 10.0 mi SE 9.2 mph - 0.00 in   Overcast
6:53 PM 73.0 °F 72.0 °F 96% 29.94 in 10.0 mi SE 5.8 mph - N/A   Overcast
7:53 PM 73.0 °F 73.0 °F 100% 29.95 in 9.0 mi ESE 5.8 mph - N/A   Overcast
8:03 PM 73.4 °F 73.4 °F 100% 29.98 in 8.0 mi SSE 4.6 mph - N/A   Overcast
8:20 PM 73.4 °F 73.4 °F 100% 29.98 in 9.0 mi SSE 6.9 mph - N/A   Overcast
8:53 PM 73.9 °F 73.0 °F 97% 29.97 in 9.0 mi SSE 5.8 mph - N/A   Overcast
9:53 PM 73.0 °F 73.0 °F 100% 29.97 in 10.0 mi SSE 8.1 mph - 0.00 in   Overcast
10:53 PM 73.0 °F 73.0 °F 100% 29.97 in 10.0 mi SSE 8.1 mph - N/A   Overcast
11:53 PM 73.0 °F 73.0 °F 100% 29.95 in 9.0 mi SSE 6.9 mph - N/A   Scattered Clouds